| time (UTC) | temp F | wind direction | speed MPH | gust MPH | rain 1hr in | rain 24hr in | rain mn in | humidity % | barometer mb |
| 20260904175559 | 86 | 131 | 3.0 | 6.0 | 0.00 | 0.00 | 0.00 | 68 | 1018.0 |
| 20260904174526 | 87 | 95 | 4.0 | 6.0 | 0.00 | 0.00 | 0.00 | 67 | 1018.1 |
| 20260904173757 | 86 | 93 | 4.0 | 6.0 | 0.00 | 0.00 | 0.00 | 67 | 1014.7 |
| 20260904173529 | 87 | 93 | 4.0 | 6.0 | 0.00 | 0.00 | 0.00 | 67 | 1018.2 |
| 20260904172531 | 87 | 155 | 4.0 | 7.0 | 0.00 | 0.00 | 0.00 | 69 | 1018.2 |
| 20260904171533 | 87 | 148 | 2.0 | 6.0 | 0.00 | 0.00 | 0.00 | 68 | 1018.3 |
| 20260904170757 | 87 | 94 | 3.0 | 6.0 | 0.00 | 0.00 | 0.00 | 67 | 1014.9 |
| 20260904170517 | 88 | 94 | 4.0 | 6.0 | 0.00 | 0.00 | 0.00 | 67 | 1018.5 |
| 20260904165519 | 88 | 140 | 4.0 | 8.0 | 0.00 | 0.00 | 0.00 | 66 | 1018.5 |
| 20260904164522 | 89 | 15 | 4.0 | 6.0 | 0.00 | 0.00 | 0.00 | 67 | 1018.5 |
| 20260904163757 | 85 | 116 | 3.0 | 7.0 | 0.00 | 0.00 | 0.00 | 71 | 1015.1 |
| 20260904163544 | 86 | 117 | 4.0 | 7.0 | 0.00 | 0.00 | 0.00 | 71 | 1018.6 |
| 20260904162606 | 84 | 168 | 4.0 | 6.0 | 0.00 | 0.00 | 0.00 | 75 | 1018.7 |
| 20260904161528 | 83 | 106 | 4.0 | 6.0 | 0.00 | 0.00 | 0.00 | 78 | 1018.5 |
| 20260904160757 | 82 | 120 | 2.0 | 5.0 | 0.00 | 0.00 | 0.00 | 80 | 1015.7 |
| 20260904160530 | 82 | 120 | 2.0 | 5.0 | 0.00 | 0.00 | 0.00 | 80 | 1018.7 |
| 20260904155532 | 82 | 131 | 4.0 | 8.0 | 0.00 | 0.00 | 0.00 | 81 | 1018.5 |
| 20260904154516 | 81 | 105 | 3.0 | 6.0 | 0.00 | 0.00 | 0.00 | 83 | 1018.4 |
| 20260904153757 | 80 | 138 | 3.0 | 7.0 | 0.00 | 0.00 | 0.00 | 84 | 1015.5 |
| 20260904153518 | 81 | 139 | 4.0 | 7.0 | 0.00 | 0.00 | 0.00 | 84 | 1018.3 |
| 20260904152520 | 80 | 109 | 5.0 | 7.0 | 0.00 | 0.00 | 0.00 | 86 | 1018.3 |
| 20260904151517 | 80 | 111 | 3.0 | 7.0 | 0.00 | 0.00 | 0.00 | 87 | 1018.2 |
| 20260904150757 | 79 | 130 | 4.0 | 7.0 | 0.00 | 0.00 | 0.00 | 88 | 1015.8 |
| 20260904150525 | 79 | 131 | 4.0 | 7.0 | 0.00 | 0.00 | 0.00 | 88 | 1018.5 |
| 20260904145527 | 79 | 87 | 3.0 | 5.0 | 0.00 | 0.00 | 0.00 | 90 | 1018.3 |
| 20260904144530 | 78 | 101 | 4.0 | 8.0 | 0.00 | 0.00 | 0.00 | 91 | 1018.3 |
| 20260904143757 | 77 | 105 | 4.0 | 6.0 | 0.00 | 0.00 | 0.00 | 92 | 1015.8 |
| 20260904143532 | 78 | 105 | 4.0 | 7.0 | 0.00 | 0.00 | 0.00 | 92 | 1018.3 |
| 20260904142516 | 78 | 107 | 4.0 | 8.0 | 0.00 | 0.00 | 0.00 | 92 | 1018.2 |
| 20260904141518 | 77 | 85 | 4.0 | 7.0 | 0.00 | 0.00 | 0.00 | 93 | 1018.1 |
| 20260904140757 | 77 | 111 | 4.0 | 9.0 | 0.00 | 0.00 | 0.00 | 93 | 1015.6 |
| 20260904140540 | 77 | 112 | 5.0 | 9.0 | 0.00 | 0.00 | 0.00 | 93 | 1018.0 |
| 20260904135522 | 77 | 123 | 4.0 | 6.0 | 0.00 | 0.00 | 0.00 | 94 | 1017.8 |
| 20260904134525 | 77 | 116 | 3.0 | 4.0 | 0.00 | 0.00 | 0.00 | 94 | 1017.7 |
| 20260904133757 | 76 | 96 | 3.0 | 5.0 | 0.00 | 0.00 | 0.00 | 95 | 1015.3 |
| 20260904133526 | 77 | 96 | 3.0 | 6.0 | 0.00 | 0.00 | 0.00 | 95 | 1017.7 |
| 20260904132529 | 76 | 84 | 2.0 | 5.0 | 0.00 | 0.00 | 0.00 | 96 | 1017.6 |
| 20260904131531 | 76 | 148 | 2.0 | 5.0 | 0.00 | 0.00 | 0.00 | 96 | 1017.4 |
| 20260904130757 | 75 | 91 | 2.0 | 4.0 | 0.00 | 0.00 | 0.00 | 97 | 1014.9 |
| 20260904130526 | 75 | 91 | 2.0 | 5.0 | 0.00 | 0.00 | 0.00 | 97 | 1017.2 |
| 20260904125536 | 75 | 155 | 2.0 | 5.0 | 0.00 | 0.00 | 0.00 | 97 | 1017.1 |
| 20260904124519 | 75 | 109 | 3.0 | 4.0 | 0.00 | 0.00 | 0.00 | 98 | 1017.0 |
| 20260904123757 | 74 | 115 | 1.0 | 3.0 | 0.00 | 0.00 | 0.00 | 98 | 1014.3 |
| 20260904123515 | 74 | 115 | 2.0 | 3.0 | 0.00 | 0.00 | 0.00 | 98 | 1016.7 |
| 20260904122523 | 74 | 111 | 1.0 | 3.0 | 0.00 | 0.00 | 0.00 | 98 | 1016.4 |
| 20260904121546 | 74 | 68 | 0.0 | 3.0 | 0.00 | 0.00 | 0.00 | 97 | 1016.4 |
| 20260904120757 | 74 | 39 | 0.0 | 4.0 | 0.00 | 0.00 | 0.00 | 97 | 1014.2 |
| 20260904120528 | 74 | 39 | 1.0 | 4.0 | 0.00 | 0.00 | 0.00 | 97 | 1016.4 |
| 20260904115529 | 75 | 137 | 2.0 | 4.0 | 0.00 | 0.00 | 0.00 | 97 | 1016.4 |
| 20260904114531 | 75 | 117 | 2.0 | 4.0 | 0.00 | 0.00 | 0.00 | 96 | 1016.3 |
| 20260904113757 | 74 | 118 | 2.0 | 4.0 | 0.00 | 0.00 | 0.00 | 96 | 1014.1 |
| 20260904113516 | 75 | 119 | 2.0 | 4.0 | 0.00 | 0.00 | 0.00 | 96 | 1016.3 |
| 20260904112519 | 75 | 0.0 | 1.0 | 0.00 | 0.00 | 0.00 | 96 | 1016.4 | |
| 20260904111520 | 75 | 97 | 2.0 | 4.0 | 0.00 | 0.00 | 0.00 | 96 | 1016.4 |
| 20260904110757 | 74 | 101 | 1.0 | 4.0 | 0.00 | 0.00 | 0.00 | 95 | 1014.2 |
| 20260904110522 | 75 | 102 | 2.0 | 4.0 | 0.00 | 0.00 | 0.00 | 95 | 1016.4 |
| 20260904105544 | 75 | 166 | 1.0 | 3.0 | 0.00 | 0.00 | 0.00 | 94 | 1016.4 |
| 20260904104526 | 75 | 125 | 2.0 | 4.0 | 0.00 | 0.00 | 0.00 | 94 | 1016.4 |
| 20260904103757 | 75 | 116 | 1.0 | 2.0 | 0.00 | 0.00 | 0.00 | 93 | 1014.1 |
| 20260904103529 | 76 | 117 | 2.0 | 3.0 | 0.00 | 0.00 | 0.00 | 93 | 1016.4 |
| 20260904102524 | 76 | 126 | 2.0 | 3.0 | 0.00 | 0.00 | 0.00 | 93 | 1016.4 |
| 20260904101519 | 76 | 78 | 2.0 | 5.0 | 0.00 | 0.00 | 0.00 | 93 | 1016.4 |
| 20260904100757 | 75 | 85 | 3.0 | 5.0 | 0.00 | 0.00 | 0.00 | 93 | 1014.0 |
| 20260904100516 | 76 | 86 | 3.0 | 6.0 | 0.00 | 0.00 | 0.00 | 93 | 1016.4 |
| 20260904095518 | 76 | 144 | 4.0 | 6.0 | 0.00 | 0.00 | 0.00 | 93 | 1016.2 |
| 20260904094520 | 76 | 126 | 3.0 | 9.0 | 0.00 | 0.00 | 0.00 | 92 | 1016.2 |
| 20260904093757 | 76 | 112 | 3.0 | 5.0 | 0.00 | 0.00 | 0.00 | 92 | 1013.9 |
| 20260904093522 | 76 | 113 | 4.0 | 6.0 | 0.00 | 0.00 | 0.00 | 92 | 1016.2 |
| 20260904092524 | 76 | 129 | 2.0 | 3.0 | 0.00 | 0.00 | 0.00 | 92 | 1016.2 |
| 20260904091526 | 77 | 134 | 4.0 | 6.0 | 0.00 | 0.00 | 0.00 | 92 | 1016.4 |
| 20260904090757 | 76 | 121 | 4.0 | 7.0 | 0.00 | 0.00 | 0.00 | 91 | 1014.0 |
| 20260904090528 | 77 | 122 | 4.0 | 7.0 | 0.00 | 0.00 | 0.00 | 91 | 1016.4 |
| 20260904085530 | 77 | 96 | 5.0 | 10.0 | 0.00 | 0.00 | 0.00 | 91 | 1016.2 |
| 20260904084533 | 77 | 132 | 4.0 | 6.0 | 0.00 | 0.00 | 0.00 | 91 | 1016.2 |
| 20260904083757 | 76 | 117 | 3.0 | 6.0 | 0.00 | 0.00 | 0.00 | 90 | 1013.7 |
| 20260904083516 | 77 | 118 | 4.0 | 7.0 | 0.00 | 0.00 | 0.00 | 90 | 1016.1 |
| 20260904082519 | 77 | 126 | 4.0 | 8.0 | 0.00 | 0.00 | 0.00 | 90 | 1016.1 |
| 20260904081519 | 77 | 116 | 4.0 | 6.0 | 0.00 | 0.00 | 0.00 | 89 | 1016.4 |
| 20260904080757 | 77 | 108 | 4.0 | 6.0 | 0.00 | 0.00 | 0.00 | 89 | 1014.0 |
| 20260904080540 | 77 | 109 | 4.0 | 6.0 | 0.00 | 0.00 | 0.00 | 89 | 1016.4 |
| 20260904075542 | 77 | 77 | 4.0 | 7.0 | 0.00 | 0.00 | 0.00 | 88 | 1016.6 |
| 20260904074538 | 78 | 117 | 3.0 | 6.0 | 0.00 | 0.00 | 0.00 | 88 | 1016.8 |
| 20260904072548 | 78 | 58 | 4.0 | 8.0 | 0.00 | 0.00 | 0.00 | 87 | 1016.9 |
| 20260904071531 | 78 | 107 | 5.0 | 8.0 | 0.00 | 0.00 | 0.00 | 87 | 1016.8 |
| 20260904070757 | 78 | 112 | 5.0 | 10.0 | 0.00 | 0.00 | 0.00 | 86 | 1014.2 |
| 20260904070532 | 78 | 113 | 5.0 | 10.0 | 0.00 | 0.00 | 0.00 | 86 | 1016.8 |
| 20260904065516 | 79 | 99 | 3.0 | 7.0 | 0.00 | 0.00 | 0.00 | 86 | 1016.6 |
| 20260904064518 | 79 | 127 | 4.0 | 7.0 | 0.00 | 0.00 | 0.00 | 85 | 1016.7 |
| 20260904063757 | 79 | 106 | 5.0 | 9.0 | 0.00 | 0.00 | 0.00 | 84 | 1014.1 |
| 20260904063521 | 79 | 107 | 5.0 | 10.0 | 0.00 | 0.00 | 0.00 | 84 | 1016.8 |
| 20260904062523 | 79 | 133 | 6.0 | 10.0 | 0.00 | 0.00 | 0.00 | 82 | 1016.8 |
| 20260904061525 | 80 | 107 | 6.0 | 11.0 | 0.00 | 0.00 | 0.00 | 80 | 1016.8 |
| 20260904060757 | 80 | 86 | 8.0 | 13.0 | 0.00 | 0.00 | 0.00 | 76 | 1013.8 |
| 20260904060527 | 80 | 87 | 8.0 | 13.0 | 0.00 | 0.00 | 0.00 | 77 | 1016.6 |
| 20260904055529 | 81 | 115 | 5.0 | 9.0 | 0.00 | 0.00 | 0.00 | 74 | 1016.6 |
| 20260904054551 | 81 | 131 | 7.0 | 12.0 | 0.00 | 0.00 | 0.00 | 72 | 1016.5 |
| 20260904053757 | 81 | 100 | 5.0 | 9.0 | 0.00 | 0.00 | 0.00 | 69 | 1013.5 |
| 20260904053516 | 81 | 100 | 6.0 | 10.0 | 0.00 | 0.00 | 0.00 | 70 | 1016.4 |
| 20260904052518 | 82 | 121 | 6.0 | 12.0 | 0.00 | 0.00 | 0.00 | 68 | 1016.4 |
| 20260904051520 | 82 | 94 | 5.0 | 8.0 | 0.00 | 0.00 | 0.00 | 67 | 1016.4 |
| 20260904050757 | 82 | 121 | 8.0 | 12.0 | 0.00 | 0.00 | 0.00 | 67 | 1013.4 |
| 20260904050516 | 82 | 122 | 9.0 | 12.0 | 0.00 | 0.00 | 0.00 | 67 | 1016.4 |
| 20260904045524 | 83 | 104 | 4.0 | 8.0 | 0.00 | 0.00 | 0.00 | 67 | 1016.4 |
| 20260904044527 | 83 | 121 | 5.0 | 7.0 | 0.00 | 0.00 | 0.00 | 66 | 1016.3 |
| 20260904043757 | 83 | 128 | 5.0 | 7.0 | 0.00 | 0.00 | 0.00 | 66 | 1013.2 |
| 20260904043529 | 83 | 128 | 6.0 | 8.0 | 0.00 | 0.00 | 0.00 | 66 | 1016.3 |
| 20260904042531 | 83 | 125 | 6.0 | 9.0 | 0.00 | 0.00 | 0.00 | 65 | 1016.4 |
| 20260904041516 | 84 | 102 | 4.0 | 7.0 | 0.00 | 0.00 | 0.00 | 65 | 1016.2 |
| 20260904040757 | 83 | 108 | 2.0 | 6.0 | 0.00 | 0.00 | 0.00 | 64 | 1013.1 |
| 20260904040518 | 84 | 108 | 3.0 | 6.0 | 0.00 | 0.00 | 0.00 | 64 | 1016.2 |
| 20260904035533 | 84 | 104 | 5.0 | 9.0 | 0.00 | 0.00 | 0.00 | 64 | 1016.2 |
| 20260904034517 | 84 | 116 | 5.0 | 7.0 | 0.00 | 0.00 | 0.00 | 64 | 1016.2 |
| 20260904033757 | 84 | 68 | 4.0 | 8.0 | 0.00 | 0.00 | 0.00 | 64 | 1013.0 |
| 20260904033519 | 84 | 69 | 5.0 | 8.0 | 0.00 | 0.00 | 0.00 | 64 | 1016.2 |
| 20260904032521 | 85 | 82 | 5.0 | 8.0 | 0.00 | 0.00 | 0.00 | 64 | 1016.0 |
| 20260904031524 | 85 | 35 | 5.0 | 9.0 | 0.00 | 0.00 | 0.00 | 64 | 1015.9 |
| 20260904030757 | 84 | 94 | 4.0 | 7.0 | 0.00 | 0.00 | 0.00 | 64 | 1012.4 |
| 20260904030526 | 85 | 94 | 5.0 | 8.0 | 0.00 | 0.00 | 0.00 | 64 | 1015.7 |
| 20260904025528 | 85 | 122 | 6.0 | 9.0 | 0.00 | 0.00 | 0.00 | 64 | 1015.6 |
| 20260904024544 | 86 | 133 | 5.0 | 10.0 | 0.00 | 0.00 | 0.00 | 63 | 1015.4 |
| 20260904023757 | 86 | 91 | 5.0 | 8.0 | 0.00 | 0.00 | 0.00 | 61 | 1011.9 |
| 20260904023520 | 86 | 91 | 5.0 | 9.0 | 0.00 | 0.00 | 0.00 | 62 | 1015.3 |
| 20260904022516 | 87 | 27 | 6.0 | 10.0 | 0.00 | 0.00 | 0.00 | 60 | 1015.1 |
| 20260904021538 | 88 | 359 | 5.0 | 9.0 | 0.00 | 0.00 | 0.00 | 58 | 1014.8 |
| 20260904020757 | 88 | 102 | 7.0 | 11.0 | 0.00 | 0.00 | 0.00 | 55 | 1010.8 |
| 20260904020520 | 89 | 102 | 7.0 | 11.0 | 0.00 | 0.00 | 0.00 | 56 | 1014.5 |
| 20260904015543 | 89 | 67 | 4.0 | 8.0 | 0.00 | 0.00 | 0.00 | 54 | 1014.1 |
| 20260904014524 | 90 | 51 | 4.0 | 9.0 | 0.00 | 0.00 | 0.00 | 53 | 1014.1 |
| 20260904013757 | 90 | 96 | 4.0 | 10.0 | 0.00 | 0.00 | 0.00 | 52 | 1010.1 |
| 20260904013527 | 90 | 97 | 5.0 | 10.0 | 0.00 | 0.00 | 0.00 | 52 | 1014.0 |
| 20260904012530 | 91 | 55 | 3.0 | 6.0 | 0.00 | 0.00 | 0.00 | 51 | 1013.9 |
| 20260904011532 | 91 | 85 | 5.0 | 9.0 | 0.00 | 0.00 | 0.00 | 49 | 1013.8 |
| 20260904010757 | 91 | 79 | 2.0 | 4.0 | 0.00 | 0.00 | 0.00 | 49 | 1009.7 |
| 20260904010548 | 92 | 80 | 2.0 | 4.0 | 0.00 | 0.00 | 0.00 | 49 | 1013.8 |
| 20260904005530 | 92 | 106 | 1.0 | 4.0 | 0.00 | 0.00 | 0.00 | 49 | 1013.8 |
| 20260904004532 | 93 | 92 | 3.0 | 5.0 | 0.00 | 0.00 | 0.00 | 48 | 1013.7 |
| 20260904003757 | 93 | 76 | 1.0 | 4.0 | 0.00 | 0.00 | 0.00 | 46 | 1009.4 |
| 20260904003536 | 93 | 77 | 1.0 | 4.0 | 0.00 | 0.00 | 0.00 | 47 | 1013.6 |
| 20260904002519 | 94 | 121 | 4.0 | 6.0 | 0.00 | 0.00 | 0.00 | 45 | 1013.5 |
| 20260904001521 | 95 | 108 | 3.0 | 6.0 | 0.00 | 0.00 | 0.00 | 44 | 1013.4 |
| 20260904000757 | 95 | 109 | 5.0 | 9.0 | 0.00 | 0.00 | 0.00 | 43 | 1009.1 |
| 20260904000523 | 95 | 110 | 5.0 | 9.0 | 0.00 | 0.00 | 0.00 | 43 | 1013.5 |
| 20260903235540 | 96 | 105 | 6.0 | 11.0 | 0.00 | 0.00 | 0.00 | 43 | 1013.4 |
| 20260903234516 | 97 | 89 | 6.0 | 10.0 | 0.00 | 0.00 | 0.00 | 43 | 1013.3 |
| 20260903233757 | 97 | 97 | 5.0 | 9.0 | 0.00 | 0.00 | 0.00 | 43 | 1008.7 |
| 20260903233544 | 97 | 98 | 5.0 | 9.0 | 0.00 | 0.00 | 0.00 | 43 | 1013.3 |
| 20260903232526 | 97 | 57 | 5.0 | 10.0 | 0.00 | 0.00 | 0.00 | 43 | 1013.3 |
| 20260903231528 | 98 | 76 | 5.0 | 9.0 | 0.00 | 0.00 | 0.00 | 42 | 1013.3 |
| 20260903230757 | 98 | 28 | 6.0 | 12.0 | 0.00 | 0.00 | 0.00 | 42 | 1008.5 |
| 20260903230530 | 98 | 28 | 7.0 | 12.0 | 0.00 | 0.00 | 0.00 | 42 | 1013.2 |
| 20260903225532 | 99 | 111 | 5.0 | 9.0 | 0.00 | 0.00 | 0.00 | 42 | 1013.1 |
| 20260903224536 | 101 | 83 | 7.0 | 10.0 | 0.00 | 0.00 | 0.00 | 39 | 1013.0 |
| 20260903223757 | 101 | 109 | 4.0 | 7.0 | 0.00 | 0.00 | 0.00 | 37 | 1007.9 |
| 20260903223519 | 102 | 109 | 4.0 | 7.0 | 0.00 | 0.00 | 0.00 | 37 | 1013.0 |
| 20260903222521 | 101 | 103 | 6.0 | 10.0 | 0.00 | 0.00 | 0.00 | 37 | 1013.0 |
| 20260903221522 | 102 | 139 | 3.0 | 7.0 | 0.00 | 0.00 | 0.00 | 36 | 1013.1 |
| 20260903220757 | 101 | 128 | 3.0 | 5.0 | 0.00 | 0.00 | 0.00 | 35 | 1008.1 |
| 20260903220519 | 102 | 129 | 4.0 | 5.0 | 0.00 | 0.00 | 0.00 | 36 | 1013.1 |
| 20260903215521 | 102 | 118 | 4.0 | 8.0 | 0.00 | 0.00 | 0.00 | 36 | 1013.2 |
| 20260903214518 | 103 | 115 | 6.0 | 9.0 | 0.00 | 0.00 | 0.00 | 36 | 1013.3 |
| 20260903213757 | 102 | 176 | 3.0 | 6.0 | 0.00 | 0.00 | 0.00 | 35 | 1008.3 |
| 20260903213540 | 103 | 177 | 4.0 | 6.0 | 0.00 | 0.00 | 0.00 | 35 | 1013.4 |
| 20260903212521 | 103 | 80 | 5.0 | 7.0 | 0.00 | 0.00 | 0.00 | 35 | 1013.4 |
| 20260903211517 | 103 | 122 | 4.0 | 7.0 | 0.00 | 0.00 | 0.00 | 35 | 1013.5 |
| 20260903210757 | 103 | 135 | 4.0 | 6.0 | 0.00 | 0.00 | 0.00 | 36 | 1008.4 |
| 20260903210525 | 104 | 136 | 4.0 | 7.0 | 0.00 | 0.00 | 0.00 | 36 | 1013.6 |
| 20260903205528 | 104 | 74 | 5.0 | 8.0 | 0.00 | 0.00 | 0.00 | 35 | 1013.8 |
| 20260903204530 | 104 | 105 | 3.0 | 4.0 | 0.00 | 0.00 | 0.00 | 36 | 1013.9 |
| 20260903203757 | 104 | 116 | 4.0 | 7.0 | 0.00 | 0.00 | 0.00 | 35 | 1008.7 |
| 20260903203546 | 104 | 116 | 4.0 | 8.0 | 0.00 | 0.00 | 0.00 | 36 | 1014.0 |
| 20260903202529 | 105 | 150 | 6.0 | 8.0 | 0.00 | 0.00 | 0.00 | 35 | 1014.1 |
| 20260903201531 | 106 | 346 | 4.0 | 7.0 | 0.00 | 0.00 | 0.00 | 35 | 1014.3 |
| 20260903200757 | 103 | 47 | 3.0 | 6.0 | 0.00 | 0.00 | 0.00 | 37 | 1009.3 |
| 20260903200533 | 103 | 48 | 3.0 | 6.0 | 0.00 | 0.00 | 0.00 | 38 | 1014.5 |
| 20260903195518 | 102 | 126 | 3.0 | 5.0 | 0.00 | 0.00 | 0.00 | 38 | 1014.7 |
| 20260903194520 | 103 | 106 | 6.0 | 10.0 | 0.00 | 0.00 | 0.00 | 38 | 1014.8 |
| 20260903193757 | 102 | 122 | 4.0 | 7.0 | 0.00 | 0.00 | 0.00 | 38 | 1009.8 |
| 20260903193522 | 102 | 123 | 5.0 | 7.0 | 0.00 | 0.00 | 0.00 | 39 | 1014.9 |
| 20260903192524 | 102 | 183 | 3.0 | 6.0 | 0.00 | 0.00 | 0.00 | 38 | 1015.1 |
| 20260903191526 | 102 | 147 | 5.0 | 7.0 | 0.00 | 0.00 | 0.00 | 39 | 1015.3 |
| 20260903190757 | 100 | 199 | 4.0 | 6.0 | 0.00 | 0.00 | 0.00 | 39 | 1010.6 |
| 20260903190529 | 101 | 199 | 4.0 | 6.0 | 0.00 | 0.00 | 0.00 | 39 | 1015.5 |
| 20260903185525 | 101 | 155 | 4.0 | 6.0 | 0.00 | 0.00 | 0.00 | 40 | 1015.6 |
| 20260903184515 | 101 | 127 | 6.0 | 8.0 | 0.00 | 0.00 | 0.00 | 40 | 1016.0 |
| 20260903183757 | 100 | 113 | 5.0 | 9.0 | 0.00 | 0.00 | 0.00 | 39 | 1011.1 |
| 20260903183518 | 101 | 113 | 6.0 | 9.0 | 0.00 | 0.00 | 0.00 | 40 | 1016.1 |
| 20260903182520 | 101 | 122 | 6.0 | 12.0 | 0.00 | 0.00 | 0.00 | 40 | 1016.1 |
| 20260903181522 | 100 | 95 | 5.0 | 7.0 | 0.00 | 0.00 | 0.00 | 42 | 1016.4 |
| 20260903180757 | 99 | 118 | 3.0 | 5.0 | 0.00 | 0.00 | 0.00 | 43 | 1011.8 |
| 20260903180524 | 99 | 119 | 4.0 | 5.0 | 0.00 | 0.00 | 0.00 | 43 | 1016.6 |